Wind_Speed
122 123 117 110 113 110 104 106 100 97 101 94 88 85 86 96 94 86 82 79 76 73 71 67 65 63 60 58 55 51 49 47 46 48 51 51 53 51 52 49 49 45 46 46
128 126 113 117 115 111 106 108 103 101 102 94 90 87 87 95 95 90 82 81 79 78 73 69 67 65 64 62 59 59 50 45 44 45 45 48 50 47 47 49 47 48 50 51
122 112 117 115 115 110 106 105 101 105 95 93 91 90 90 93 98 95 86 82 81 78 76 75 74 71 68 65 64 61 58 54 54 53 48 46 45 44 43 41 42 41 41 43
112 108 111 112 109 105 99 98 89 89 95 96 86 85 91 93 98 94 86 83 82 79 85 83 79 75 71 68 67 65 63 60 58 56 53 51 48 47 44 42 43 44 42 43
103 98 101 105 102 101 95 91 88 87 80 91 85 88 88 94 97 96 86 87 86 86 86 86 84 78 75 72 69 68 67 65 62 60 59 57 56 54 51 50 49 49 48 49
90 94 99 93 96 93 90 92 90 97 88 99 89 91 87 93 97 99 97 90 88 89 88 87 85 83 78 76 73 70 69 68 68 65 63 63 62 60 58 57 55 56 55 53
94 91 92 91 92 92 95 101 90 97 91 98 91 90 86 91 101 106 102 94 91 92 92 88 85 84 82 80 77 74 74 72 72 70 68 67 66 66 64 62 61 60 59 59
89 92 89 86 87 85 93 104 102 101 96 93 100 85 85 93 103 107 106 99 93 91 91 90 89 87 85 83 82 78 77 77 73 72 71 71 71 69 68 68 66 64 63 63
85 96 91 89 87 88 98 106 107 106 106 103 93 81 84 89 100 106 106 103 93 93 92 94 93 91 89 87 86 85 82 81 79 76 75 73 73 71 71 69 67 66 67 66
98 91 86 87 87 92 99 102 103 107 100 97 92 86 81 83 94 101 106 103 99 98 96 97 96 94 93 91 90 87 85 85 84 82 80 79 77 75 74 73 71 71 68 67
96 93 88 87 88 93 99 106 111 112 107 102 93 81 81 78 84 98 107 108 105 102 98 100 100 99 98 96 94 91 89 89 87 86 85 82 80 79 78 76 75 74 75 74
89 93 93 92 94 97 99 109 116 122 121 111 105 95 90 85 82 90 104 113 108 106 101 101 103 104 103 101 98 96 95 93 91 89 88 86 85 83 81 79 79 78 77 77
85 90 79 81 83 85 100 110 115 119 124 125 113 96 99 95 86 80 90 103 112 110 111 108 105 105 106 104 103 100 98 97 96 94 93 92 90 87 86 85 83 84 82 81
90 98 94 86 86 87 92 105 113 118 122 124 123 107 107 105 98 91 91 92 98 106 114 114 115 111 108 108 106 103 101 100 99 99 97 96 95 94 91 90 89 90 89 87
92 100 105 101 96 95 87 97 106 120 119 125 124 118 112 113 105 99 95 91 98 101 105 120 120 117 116 114 111 108 108 107 103 102 101 101 99 99 98 96 95 94 94 94
93 96 103 110 116 114 114 114 113 106 117 124 119 123 106 118 116 107 100 102 101 108 107 111 114 121 124 123 119 114 111 108 107 108 108 106 104 103 103 102 101 100 100 100
92 92 92 100 116 122 124 114 118 118 113 114 116 111 107 109 115 120 116 109 106 108 105 109 114 115 119 125 128 123 120 115 111 111 110 109 109 109 107 105 105 104 103 102
88 90 90 92 103 116 113 116 117 120 118 118 116 112 108 104 106 117 125 125 119 114 111 112 116 123 118 118 121 127 128 125 121 117 117 116 115 112 110 108 108 108 108 107
84 87 88 89 91 97 99 111 119 122 119 119 118 113 111 111 108 113 113 120 125 125 122 117 117 117 119 120 120 121 124 129 130 127 124 123 120 117 116 114 114 114 112 112
79 83 86 88 90 89 86 108 118 126 124 124 125 120 116 114 113 111 115 115 116 124 128 126 122 122 124 126 126 121 120 116 119 130 132 129 128 126 124 123 121 119 118 117
76 81 84 88 88 83 88 102 112 121 122 125 126 124 120 118 119 118 117 116 117 119 123 128 130 131 131 131 131 128 127 124 121 120 120 121 121 124 130 132 129 129 128 126
71 73 76 81 82 83 85 92 102 110 117 122 126 128 127 126 125 125 124 121 120 119 123 123 124 127 133 139 139 136 136 137 133 129 126 125 124 122 123 122 121 125 125 125
61 62 64 66 73 73 75 80 86 95 101 107 116 123 128 129 129 128 127 125 123 120 118 122 125 126 127 129 133 130 129 131 133 134 133 134 132 130 128 128 127 128 123 122
56 58 58 63 71 71 71 75 80 84 89 95 102 110 114 118 122 125 127 127 125 123 123 120 119 120 123 127 126 126 124 125 125 123 122 123 122 122 122 120 117 116 118 117
55 56 57 59 64 68 71 74 77 80 84 88 93 99 105 111 116 119 121 123 123 121 120 121 119 118 119 121 121 121 123 123 120 120 118 115 114 114 113 112 112 111 111 111
59 61 61 60 65 65 68 72 75 79 80 83 88 93 99 103 106 110 113 115 116 117 117 116 115 115 115 117 119 119 119 118 116 115 114 114 113 112 111 109 107 107 106 106
Wind_Direction
257 256 256 258 256 257 258 259 255 254 255 253 251 246 239 235 233 233 236 238 243 245 248 251 253 255 255 255 255 258 258 261 260 261 261 261 262 266 271 271 277 276 276 277
255 257 257 254 255 256 256 258 257 253 254 252 247 244 235 234 232 231 231 235 238 241 245 246 249 251 254 257 259 260 260 261 259 263 262 261 263 266 270 271 273 274 275 275
252 252 252 250 252 251 252 253 252 254 250 246 243 238 236 231 232 231 230 234 237 240 243 245 245 247 250 254 257 261 262 261 263 265 266 265 265 268 269 270 272 275 278 280
248 246 247 248 248 248 247 246 245 250 249 242 242 237 234 231 230 229 229 232 235 236 239 242 244 246 248 250 255 259 260 262 263 267 268 269 270 270 273 275 276 277 278 279
248 247 245 245 245 243 241 236 232 234 247 243 242 235 233 230 230 228 227 231 233 236 239 241 243 244 247 249 250 254 258 262 264 266 268 268 269 270 273 274 275 277 277 279
245 243 244 243 241 238 232 224 228 235 236 246 238 235 235 231 230 229 226 228 233 235 237 240 244 246 246 249 250 252 256 258 261 262 265 268 270 271 273 275 276 280 282 282
245 245 246 241 240 235 226 222 224 232 231 240 243 235 231 231 231 231 228 224 230 236 239 240 243 246 247 247 249 251 253 255 259 262 263 265 268 272 273 275 277 279 283 283
242 242 241 242 240 237 227 223 225 231 232 237 241 239 235 232 232 234 232 228 227 235 240 241 242 244 246 247 247 248 250 254 254 257 259 263 267 270 273 276 278 280 281 283
234 240 239 236 236 232 225 224 225 228 233 236 239 239 237 238 236 232 234 232 228 233 239 242 242 243 244 246 248 249 250 252 255 256 258 260 264 266 269 272 275 277 281 283
234 241 240 237 235 231 224 224 225 230 231 230 228 236 240 241 240 236 231 234 233 229 233 239 243 245 245 245 247 248 248 250 253 255 257 259 262 264 266 269 274 277 277 278
231 234 238 238 233 230 225 225 223 227 228 231 230 231 233 244 244 239 235 231 235 234 232 235 238 242 244 246 247 247 248 250 251 254 256 258 261 263 265 269 272 273 277 280
225 226 232 237 236 230 232 228 228 230 232 230 231 229 232 243 242 247 241 235 234 236 236 236 237 239 241 244 246 247 248 249 251 253 256 259 260 261 263 265 267 269 271 274
220 217 221 227 231 234 236 232 231 232 235 235 230 226 232 239 241 238 249 241 238 235 236 238 238 239 241 242 244 247 249 249 250 251 253 255 257 259 261 264 266 267 268 270
220 218 216 222 228 230 232 234 232 234 237 237 235 227 231 238 238 236 243 245 249 242 238 239 239 240 241 242 243 245 247 250 252 253 253 255 256 258 260 262 263 265 267 269
220 221 219 220 225 225 232 239 235 233 238 239 236 233 231 238 241 239 238 244 251 250 246 241 239 241 242 243 244 244 246 247 249 253 255 256 257 258 259 261 263 265 266 268
225 225 225 224 226 229 232 237 244 239 239 241 241 236 239 239 239 241 238 241 244 251 250 245 246 246 244 245 245 245 246 247 249 250 252 255 257 260 262 262 263 264 266 268
227 229 233 231 229 232 235 240 241 243 243 245 245 247 247 241 243 242 241 239 240 248 254 255 255 252 250 249 247 246 247 248 248 251 252 253 255 257 259 261 263 266 267 269
230 231 234 236 235 235 239 240 243 245 245 247 246 246 248 243 243 243 244 243 242 243 244 248 255 258 257 255 253 251 249 250 248 249 251 252 254 256 257 259 261 263 265 267
232 233 235 239 241 242 243 243 243 246 246 247 249 248 249 247 242 247 245 245 246 244 243 246 247 250 255 257 259 256 254 253 252 250 252 253 253 254 256 258 260 262 264 266
235 237 239 240 243 244 244 244 244 245 246 246 249 249 249 250 251 245 244 246 245 245 245 243 244 247 250 255 258 260 262 261 259 255 252 254 256 256 257 259 260 261 263 266
237 238 241 242 244 247 247 245 245 247 248 249 249 250 250 251 252 251 250 247 246 245 246 246 247 248 249 251 255 258 259 261 261 261 262 261 260 260 260 260 261 261 262 264
244 245 246 247 249 247 246 247 246 247 247 248 249 251 251 251 252 253 253 251 250 248 246 246 247 249 251 252 253 254 258 260 261 261 262 263 264 265 268 268 265 262 264 267
250 252 254 253 253 250 248 251 251 250 249 248 249 250 251 252 252 254 255 255 255 254 252 250 249 249 251 254 256 256 258 260 262 263 263 264 266 268 269 269 269 271 273 275
256 259 261 261 259 257 252 249 250 251 252 252 252 252 253 254 254 254 254 254 254 254 254 254 253 252 251 253 255 257 258 259 260 263 265 266 266 267 267 268 268 268 271 275
261 262 260 258 259 259 258 256 254 252 252 253 253 253 253 253 253 254 254 256 256 255 254 254 255 255 255 255 256 258 258 259 259 261 263 266 268 269 270 270 270 270 271 272
263 263 263 262 261 262 262 264 264 262 260 256 254 255 257 256 256 255 255 255 255 255 255 255 255 255 255 256 256 257 258 259 260 260 261 262 264 266 267 268 268 269 269 270
Height
10605 10603 10624 10649 10643 10644 10655 10657 10673 10682 10673 10695 10713 10724 10728 10726 10744 10757 10763 10774 10779 10782 10785 10793 10797 10798 10802 10805 10807 10810 10813 10817 10817 10817 10819 10821 10820 10821 10821 10821 10822 10822 10822 10821
10568 10583 10621 10608 10611 10627 10636 10637 10648 10656 10654 10677 10687 10703 10709 10712 10728 10739 10746 10756 10760 10765 10772 10777 10780 10783 10786 10791 10795 10799 10803 10807 10807 10807 10809 10810 10810 10811 10811 10812 10813 10812 10812 10810
10550 10582 10571 10584 10592 10606 10618 10624 10626 10629 10634 10646 10664 10684 10691 10704 10705 10723 10733 10741 10747 10755 10758 10759 10762 10767 10773 10778 10782 10788 10793 10793 10795 10796 10800 10799 10801 10802 10802 10803 10802 10801 10800 10799
10520 10541 10548 10558 10573 10587 10600 10604 10606 10609 10612 10621 10647 10670 10676 10687 10693 10706 10714 10722 10731 10736 10731 10737 10746 10756 10761 10764 10770 10776 10778 10781 10782 10785 10788 10789 10791 10792 10793 10793 10792 10791 10790 10789
10512 10522 10528 10535 10557 10564 10576 10583 10587 10587 10592 10601 10629 10647 10664 10671 10682 10688 10697 10702 10708 10712 10717 10724 10731 10741 10748 10753 10757 10761 10764 10769 10771 10774 10775 10777 10777 10780 10783 10783 10781 10781 10781 10780
10491 10496 10497 10524 10533 10544 10558 10558 10565 10569 10576 10582 10613 10627 10653 10658 10665 10662 10671 10682 10691 10695 10702 10710 10718 10727 10735 10740 10744 10747 10752 10754 10756 10760 10762 10763 10764 10767 10770 10771 10771 10771 10771 10770
10475 10486 10493 10501 10510 10521 10533 10541 10547 10551 10559 10580 10591 10611 10641 10640 10643 10641 10651 10662 10674 10676 10686 10698 10706 10713 10719 10724 10728 10732 10734 10739 10742 10747 10749 10749 10751 10755 10756 10759 10758 10760 10759 10756
10457 10463 10476 10494 10501 10513 10526 10529 10534 10538 10549 10570 10571 10598 10620 10622 10619 10624 10633 10645 10653 10667 10673 10682 10688 10694 10699 10705 10711 10716 10718 10720 10726 10730 10733 10736 10738 10741 10742 10743 10745 10748 10746 10744
10433 10442 10458 10473 10479 10489 10503 10505 10517 10524 10532 10546 10566 10586 10600 10600 10599 10608 10617 10626 10641 10649 10658 10662 10668 10675 10681 10686 10693 10699 10703 10705 10708 10714 10716 10720 10722 10725 10726 10727 10732 10732 10731 10731
10419 10433 10443 10454 10460 10467 10484 10496 10500 10503 10514 10533 10554 10571 10579 10582 10583 10588 10598 10605 10616 10627 10638 10644 10650 10657 10661 10666 10672 10678 10684 10688 10690 10694 10699 10703 10706 10708 10710 10712 10715 10715 10716 10715
10410 10421 10433 10440 10445 10457 10470 10476 10484 10487 10498 10515 10535 10553 10561 10567 10568 10570 10574 10583 10592 10607 10616 10621 10627 10633 10639 10645 10652 10659 10665 10669 10673 10677 10680 10685 10689 10690 10694 10696 10697 10697 10696 10699
10396 10409 10417 10423 10432 10441 10445 10455 10464 10469 10478 10495 10510 10534 10548 10552 10549 10550 10551 10562 10576 10586 10593 10598 10603 10608 10614 10621 10630 10638 10646 10652 10657 10661 10665 10669 10672 10672 10675 10677 10678 10678 10680 10679
10382 10392 10401 10406 10412 10417 10423 10435 10447 10453 10457 10465 10485 10530 10526 10535 10532 10533 10533 10548 10553 10565 10563 10572 10579 10585 10593 10601 10608 10617 10626 10631 10637 10642 10646 10649 10650 10653 10655 10658 10660 10660 10661 10662
10363 10372 10383 10391 10395 10402 10405 10416 10425 10432 10434 10446 10465 10503 10511 10510 10511 10514 10523 10527 10529 10532 10544 10548 10554 10563 10571 10580 10588 10596 10603 10610 10616 10621 10626 10628 10630 10633 10635 10637 10639 10640 10641 10643
10344 10354 10362 10373 10376 10382 10388 10391 10402 10410 10419 10420 10453 10474 10493 10486 10491 10499 10504 10505 10506 10510 10512 10520 10533 10544 10548 10556 10565 10575 10580 10586 10595 10599 10602 10605 10609 10612 10615 10617 10618 10620 10621 10621
10329 10339 10347 10353 10355 10361 10367 10375 10387 10403 10407 10406 10430 10453 10465 10464 10471 10477 10480 10481 10488 10492 10493 10502 10515 10520 10525 10531 10540 10549 10556 10564 10572 10577 10578 10582 10586 10590 10592 10595 10597 10599 10599 10600
10319 10330 10337 10344 10343 10343 10342 10378 10378 10380 10392 10399 10408 10433 10425 10452 10449 10447 10450 10459 10474 10476 10482 10487 10485 10492 10499 10504 10513 10524 10532 10540 10548 10550 10557 10560 10563 10565 10568 10573 10576 10576 10576 10577
10308 10317 10319 10325 10328 10326 10352 10355 10360 10364 10375 10377 10385 10404 10407 10422 10419 10420 10431 10448 10454 10460 10466 10468 10468 10467 10473 10477 10484 10494 10504 10509 10520 10529 10530 10533 10539 10544 10545 10549 10550 10551 10552 10554
10293 10298 10304 10308 10314 10321 10338 10343 10342 10342 10352 10352 10356 10372 10375 10386 10400 10400 10418 10420 10426 10434 10439 10443 10446 10448 10447 10449 10457 10466 10476 10481 10489 10499 10506 10507 10512 10517 10519 10523 10524 10526 10529 10529
10275 10282 10287 10294 10295 10306 10328 10319 10319 10309 10326 10331 10333 10343 10356 10363 10371 10382 10382 10389 10398 10402 10410 10419 10423 10427 10429 10427 10432 10441 10447 10453 10456 10467 10478 10481 10485 10491 10493 10494 10498 10501 10502 10503
10257 10263 10269 10272 10276 10294 10299 10292 10289 10289 10310 10307 10311 10317 10329 10338 10344 10353 10356 10359 10367 10373 10381 10389 10397 10403 10405 10405 10408 10415 10418 10422 10428 10435 10443 10450 10454 10459 10461 10465 10467 10470 10475 10475
10243 10247 10251 10254 10261 10272 10271 10266 10267 10271 10283 10287 10288 10292 10302 10309 10313 10319 10326 10331 10336 10345 10352 10358 10368 10375 10376 10376 10380 10391 10391 10387 10397 10406 10413 10418 10423 10430 10434 10434 10437 10439 10445 10450
10230 10234 10238 10241 10233 10244 10249 10247 10250 10251 10257 10261 10261 10263 10267 10276 10284 10291 10298 10306 10311 10316 10323 10329 10340 10348 10349 10348 10350 10364 10365 10363 10364 10373 10382 10386 10391 10396 10400 10404 10407 10409 10413 10414
10217 10217 10222 10220 10212 10221 10230 10229 10227 10228 10232 10237 10239 10240 10243 10248 10253 10259 10263 10268 10275 10282 10289 10295 10303 10312 10320 10318 10323 10327 10335 10336 10340 10344 10347 10351 10357 10362 10367 10373 10377 10377 10380 10379
10200 10200 10202 10202 10200 10200 10202 10204 10207 10210 10210 10211 10212 10212 10212 10216 10219 10225 10231 10235 10240 10247 10254 10261 10269 10279 10285 10286 10291 10292 10298 10304 10313 10319 10323 10324 10324 10329 10334 10338 10342 10344 10346 10345
10182 10181 10184 10187 10184 10185 10186 10185 10186 10185 10189 10192 10192 10188 10183 10185 10189 10193 10197 10202 10207 10213 10219 10227 10235 10244 10251 10255 10261 10262 10264 10270 10279 10290 10295 10298 10300 10302 10304 10307 10310 10313 10317 10318